This demonstration page uses our WeatherBlox Daily Observations layout. Learn more.

Left ArrowRight Arrow

47.50024, -111.30081

Hourly Observations for January 1, 2016

Temp ( °F °C ) Dew Point ( °F °C ) Humidity (%) Winds ( mph kmh ) Pressure ( in mb ) Visibility ( mi km ) Precip ( " mm )
12:53 am 00:53 Clear 21 -6.1 10 -12.2 62 62 SSW 23 37 30.48 1032 10 16 0.00 0.00
1:53 am 01:53 Clear 22 -5.6 11 -11.7 63 63 SSW 24 39 30.48 1032 10 16 0.00 0.00
2:53 am 02:53 Clear 21 -6.1 11 -11.7 65 65 SW 25 41 30.49 1032 10 16 0.00 0.00
3:53 am 03:53 Clear 21 -6.1 10 -12.2 62 62 SSW 25 41 30.49 1033 10 16 0.00 0.00
4:53 am 04:53 Clear 20 -6.7 10 -12.2 65 65 SSW 23 37 30.50 1033 10 16 0.00 0.00
5:53 am 05:53 Clear 19 -7.2 8 -13.3 62 62 SW 23 37 30.51 1033 10 16 0.00 0.00
6:53 am 06:53 Clear 19 -7.2 9 -12.8 65 65 SSW 23 37 30.50 1033 10 16 0.00 0.00
7:53 am 07:53 Clear 19 -7.2 8 -13.3 62 62 SSW 24 39 30.52 1034 10 16 0.00 0.00
8:53 am 08:53 Sunny 17 -8.3 7 -13.9 64 64 SW 14 22 30.53 1034 10 16 0.00 0.00
9:53 am 09:53 Sunny 20 -6.7 9 -12.8 62 62 SW 23 37 30.52 1034 10 16 0.00 0.00
10:53 am 10:53 Sunny 21 -6.1 10 -12.2 62 62 SSW 16 26 30.52 1034 10 16 0.00 0.00
11:53 am 11:53 Sunny 23 -5 11 -11.7 60 60 SW 15 24 30.50 1033 10 16 0.00 0.00
12:53 pm 12:53 Sunny 25 -3.9 12 -11.1 58 58 SW 17 28 30.47 1032 10 16 0.00 0.00
1:53 pm 13:53 Sunny 26 -3.3 13 -10.6 57 57 SW 17 28 30.45 1031 10 16 0.00 0.00
2:53 pm 14:53 Sunny 25 -3.9 13 -10.6 60 60 SW 16 26 30.45 1031 10 16 0.00 0.00
3:53 pm 15:53 Sunny 24 -4.4 12 -11.1 60 60 SW 15 24 30.45 1031 10 16 0.00 0.00
4:53 pm 16:53 Clear 22 -5.6 10 -12.2 60 60 SW 14 22 30.46 1032 10 16 0.00 0.00
5:53 pm 17:53 Clear 20 -6.7 7 -13.9 57 57 SW 13 20 30.47 1032 10 16 0.00 0.00
6:53 pm 18:53 Clear 20 -6.7 8 -13.3 60 60 SW 16 26 30.47 1032 10 16 0.00 0.00
7:53 pm 19:53 Clear 13 -10.6 5 -15 70 70 SW 10 17 30.48 1032 10 16 0.00 0.00
8:53 pm 20:53 Clear 15 -9.4 5 -15 64 64 WSW 14 22 30.47 1032 10 16 0.00 0.00
9:53 pm 21:53 Clear 15 -9.4 5 -15 64 64 SW 14 22 30.47 1032 10 16 0.00 0.00
10:53 pm 22:53 Clear 9 -12.8 2 -16.7 73 73 W 8 13 30.49 1033 10 16 0.00 0.00
11:53 pm 23:53 Clear 12 -11.1 4 -15.6 70 70 SW 12 19 30.48 1032 10 16 0.00 0.00

Powered by AerisWeather